CAPE
0 0 0 0 1 2 8 0 0 0 0 0 2 24 1 1 3 1 1 0 0 0 0 0 0 0 0 0 0 0 0 0 0 0 0 0 0 0 0 0 0 0 0 0 0
4 9 0 0 0 2 7 2 0 0 1 0 0 16 0 0 1 7 0 0 0 0 0 0 0 0 0 0 0 0 0 0 0 0 0 0 0 0 0 0 0 0 0 0 0
13 18 13 10 0 1 7 2 9 0 7 0 0 7 2 0 0 0 0 0 0 0 0 0 0 0 0 0 0 0 2 0 0 0 0 0 0 0 0 0 0 0 0 0 12
16 16 30 15 9 12 16 6 28 1 15 7 2 27 2 0 1 0 0 0 0 0 0 0 0 10 0 0 0 0 0 0 0 0 0 0 0 0 0 0 0 0 0 0 17
40 30 35 15 24 8 36 11 32 2 26 8 5 43 3 0 0 3 0 0 1 6 0 0 7 3 0 0 0 0 0 0 0 0 0 0 0 0 0 0 0 0 0 0 0
77 46 69 0 0 5 30 23 15 37 38 7 12 36 3 2 0 0 37 17 8 2 6 0 0 0 0 0 0 0 0 0 0 0 0 0 0 0 0 0 0 0 0 0 0
157 62 82 0 0 5 8 6 0 63 22 30 18 47 7 0 0 0 15 17 20 1 1 0 0 0 0 0 0 0 0 0 0 0 0 0 0 0 0 0 0 0 0 0 0
233 62 79 1 1 5 2 3 20 59 63 70 16 65 4 0 0 0 2 8 47 2 2 32 41 6 0 0 0 0 0 0 0 0 0 0 2 0 0 0 0 0 0 0 0
223 71 50 0 0 0 1 0 0 19 80 107 28 31 2 0 0 0 7 21 88 30 7 6 38 17 0 1 0 0 0 0 0 0 0 0 46 0 0 0 0 0 0 4 3
194 107 73 1 0 0 3 23 10 32 109 79 11 16 0 0 0 0 0 30 90 43 5 25 10 0 0 4 1 2 0 0 0 0 0 0 0 0 0 0 0 0 0 0 0
222 205 143 21 0 0 4 10 18 16 79 13 13 4 0 0 0 0 6 40 39 29 0 11 0 0 0 0 0 6 0 0 1 0 0 0 0 0 0 0 0 0 0 0 0
121 238 103 56 10 0 11 28 17 11 96 3 13 8 0 0 0 0 27 6 4 0 3 1 4 0 4 7 0 0 0 0 0 0 0 0 0 0 0 0 0 0 0 0 0
123 226 192 71 31 3 0 28 16 2 3 5 10 13 0 0 0 0 27 0 12 1 0 0 0 0 0 0 0 0 0 0 0 0 0 0 0 0 0 0 0 0 0 0 0
184 189 143 94 2 0 5 55 11 1 0 1 3 1 0 1 18 25 47 1 7 1 0 0 0 0 0 0 0 0 0 0 0 0 0 0 0 0 0 0 0 0 0 0 0
79 163 107 5 18 0 14 20 0 1 1 0 8 2 2 3 0 25 0 3 5 3 0 0 0 0 0 0 0 0 0 0 0 0 0 0 0 0 0 0 0 0 0 0 0
52 147 47 0 1 0 37 23 6 1 0 0 3 2 1 18 10 18 11 14 9 5 0 0 0 0 0 0 0 0 0 0 0 0 0 0 0 0 0 0 0 0 0 0 0
66 68 23 2 22 67 40 17 0 0 0 0 0 0 3 10 10 4 1 16 0 0 0 0 0 0 0 0 0 0 0 0 0 0 0 0 0 0 0 0 0 0 0 0 0
37 2 0 0 119 63 17 1 0 0 0 0 3 0 0 6 14 15 9 20 23 0 0 0 0 0 0 0 0 0 0 0 0 0 0 0 0 0 0 0 0 0 0 0 0
5 13 4 3 0 1 12 0 0 0 0 0 1 0 0 0 1 12 7 10 5 0 0 0 0 0 0 0 1 3 0 0 0 0 0 0 0 0 0 0 0 0 0 0 0
0 0 1 0 0 27 0 0 0 0 0 1 0 0 0 0 0 0 11 4 10 0 0 0 0 2 0 0 0 3 0 0 0 0 0 0 0 0 0 0 0 0 0 0 0
0 0 2 0 0 4 5 0 0 0 2 0 0 0 0 0 8 1 1 1 0 0 0 0 0 2 0 3 1 0 2 0 0 0 0 0 0 0 0 0 0 0 0 0 0
0 0 4 0 0 0 0 1 2 1 0 1 0 3 1 1 0 0 0 1 0 7 0 0 1 1 3 0 0 1 0 0 0 0 0 0 0 0 0 0 0 0 0 0 0
0 3 10 0 0 0 1 1 1 0 0 0 0 0 0 0 0 1 2 1 1 5 3 0 0 0 0 0 0 0 0 0 0 0 0 0 0 0 0 0 0 0 0 0 0
0 0 0 0 0 0 0 0 0 0 0 0 0 0 0 0 0 0 0 1 0 1 0 7 3 0 0 0 0 0 0 0 0 0 0 0 0 0 0 0 0 0 0 0 0
0 0 0 0 0 0 0 0 0 0 0 0 0 0 1 0 0 0 1 3 0 0 0 0 0 0 0 0 0 0 0 0 0 0 1 0 0 0 0 0 0 0 0 0 0
0 0 0 0 0 0 0 0 0 0 0 0 0 0 0 0 0 0 0 0 0 0 0 0 1 0 0 0 0 0 0 0 0 0 0 0 0 0 0 0 0 0 0 0 0
0 0 0 0 0 0 0 0 0 0 0 0 0 0 0 0 0 0 0 0 0 1 0 0 0 0 0 0 0 0 0 0 0 0 0 0 0 0 0 0 0 0 0 0 0
CIN
-0 -0 -0 -0 -0 -12 -33 -0 -0 -0 -0 -0 -13 -20 -0 -0 -0 -0 -0 -0 -22 -0 -0 -0 -0 -0 -0 -0 -0 -0 -0 -0 -0 -0 -0 -0 -0 -0 -0 -0 -0 -0 -0 -0 -0
-3 -3 -0 -0 -0 -8 -25 -55 -0 -0 -3 -0 -0 -21 -0 -0 -0 -0 -0 -0 -0 -25 -0 -0 -0 -0 -0 -0 -0 -0 -0 -0 -0 -0 -0 -0 -0 -0 -0 -0 -0 -0 -0 -0 -0
-60 -45 -24 -48 -0 -9 -11 -57 -46 -0 -27 -0 -0 -6 -7 -0 -0 -0 -0 -0 -0 -0 -0 -0 -0 -0 -0 -0 -0 -0 -41 -0 -0 -0 -0 -0 -0 -0 -0 -0 -0 -0 -0 -0 -208
-49 -40 -16 -54 -48 -23 -10 -57 -40 -31 -20 -25 -44 -9 -0 -0 -1 -0 -0 -0 -0 -0 -0 -0 -0 -25 -0 -0 -0 -0 -0 -0 -0 -0 -0 -0 -0 -0 -0 -0 -0 -0 -0 -0 -144
-28 -30 -20 -53 -51 -18 -8 -37 -52 -50 -22 -18 -26 -5 -0 -1 -0 -62 -2 -5 -62 -92 -0 -0 -1 -36 -0 -0 -0 -0 -0 -0 -0 -0 -0 -0 -0 -0 -0 -0 -0 -0 -0 -0 -0
-11 -30 -19 -1 -0 -89 -5 -11 -64 -31 -17 -11 -10 -6 -0 -0 -0 -0 -70 -108 -72 -56 -46 -0 -0 -0 -0 -0 -0 -0 -0 -0 -0 -0 -0 -0 -0 -0 -0 -0 -0 -0 -0 -0 -0
-7 -27 -21 -0 -0 -101 -24 -8 -1 -41 -19 -7 -11 -0 -2 -0 -0 -0 -74 -57 -44 -80 -12 -0 -0 -0 -0 -0 -0 -0 -0 -0 -0 -0 -0 -0 -0 -0 -0 -0 -0 -0 -0 -0 -0
-1 -26 -19 -3 -13 -67 -13 -34 -32 -38 -14 -5 -13 -0 -0 -0 -0 -0 -65 -58 -14 -22 -66 -35 -7 -2 -0 -0 -0 -0 -0 -0 -0 -0 -0 -0 -2 -0 -0 -0 -0 -0 -0 -0 -16
-7 -19 -22 -0 -0 -26 -33 -0 -0 -44 -13 -2 -4 -0 -0 -0 -0 -0 -12 -22 -3 -30 -80 -61 -28 -5 -7 -10 -0 -0 -0 -0 -0 -0 -0 -0 -7 -0 -0 -0 -0 -0 -0 -23 -38
-9 -16 -16 -1 -0 -0 -19 -24 -10 -30 -4 -3 -4 -1 -0 -0 -0 -0 -0 -7 -1 -24 -6 -27 -6 -2 -0 -0 -0 -0 -0 -0 -0 -0 -0 -0 -0 -0 -0 -0 -0 -0 -0 -0 -0
-6 -9 -11 -25 -0 -0 -26 -11 -1 -3 -1 -16 -1 -2 -0 -0 -0 -0 -64 -12 -17 -23 -0 -16 -0 -0 -0 -0 -0 -0 -0 -1 -2 -0 -0 -0 -0 -0 -0 -0 -0 -0 -0 -0 -0
-11 -9 -16 -14 -18 -0 -4 -0 -4 -0 -1 -13 -3 -5 -0 -0 -0 -0 -2 -30 -8 -0 -1 -0 -17 -0 -1 -2 -0 -0 -0 -0 -0 -0 -0 -0 -0 -0 -0 -0 -0 -0 -0 -0 -0
-11 -7 -6 -11 -12 -3 -1 -1 -23 -0 -0 -6 -0 -0 -0 -0 -0 -0 -8 -0 -43 -8 -0 -0 -0 -0 -0 -0 -3 -0 -0 -0 -0 -0 -0 -0 -0 -0 -0 -0 -0 -0 -0 -0 -0
-4 -7 -10 -5 -3 -0 -1 -4 -44 -0 -0 -0 -2 -1 -0 -2 -1 -2 -3 -0 -43 -9 -1 -0 -0 -0 -0 -0 -0 -2 -0 -0 -0 -0 -0 -0 -0 -0 -0 -0 -0 -0 -0 -0 -0
-7 -10 -15 -43 -7 -0 -1 -10 -0 -3 -4 -0 -0 -1 -7 -0 -0 -1 -0 -5 -1 -1 -0 -0 -0 -0 -0 -0 -0 -0 -0 -0 -0 -0 -0 -0 -0 -0 -0 -0 -0 -0 -0 -0 -0
-10 -9 -30 -1 -28 -0 -0 -2 -3 -0 -9 -0 -0 -0 -0 -0 -0 -0 -2 -11 -2 -1 -0 -0 -0 -0 -0 -0 -0 -0 -0 -0 -0 -0 -0 -0 -0 -0 -0 -0 -0 -0 -0 -0 -0
-10 -18 -15 -16 -0 -9 -0 -0 -0 -0 -0 -0 -0 -0 -0 -4 -1 -0 -0 -0 -0 -0 -0 -0 -0 -0 -0 -0 -0 -0 -0 -0 -0 -0 -0 -0 -0 -0 -0 -0 -0 -0 -0 -0 -0
-26 -43 -0 -0 -0 -2 -2 -0 -0 -0 -0 -0 -0 -0 -0 -7 -0 -0 -0 -0 -3 -0 -0 -0 -0 -0 -0 -0 -0 -0 -0 -0 -0 -0 -0 -0 -0 -0 -0 -0 -0 -0 -0 -0 -0
-30 -11 -29 -0 -0 -6 -1 -0 -0 -0 -0 -0 -0 -0 -0 -0 -0 -0 -0 -0 -1 -0 -0 -0 -0 -0 -0 -0 -1 -1 -0 -0 -0 -0 -0 -0 -0 -0 -0 -0 -0 -0 -0 -0 -0
-0 -0 -3 -0 -0 -4 -1 -0 -0 -0 -0 -0 -0 -0 -0 -0 -0 -0 -0 -2 -3 -0 -0 -0 -0 -0 -0 -0 -0 -2 -0 -0 -0 -0 -0 -0 -0 -0 -0 -0 -0 -0 -0 -0 -0
-0 -0 -1 -0 -0 -3 -1 -0 -0 -0 -0 -0 -1 -0 -0 -0 -1 -0 -0 -0 -0 -1 -0 -0 -0 -0 -0 -1 -1 -0 -1 -0 -0 -0 -0 -0 -0 -0 -0 -0 -0 -0 -0 -0 -0
-0 -0 -0 -0 -0 -0 -0 -0 -0 -0 -0 -0 -0 -0 -0 -0 -0 -0 -0 -0 -0 -1 -0 -0 -0 -0 -0 -0 -0 -1 -0 -0 -0 -0 -0 -0 -0 -0 -0 -0 -0 -0 -0 -0 -0
-0 -0 -3 -0 -0 -0 -0 -0 -0 -0 -0 -0 -0 -0 -0 -0 -0 -0 -0 -0 -2 -1 -0 -0 -0 -0 -0 -0 -0 -0 -0 -0 -0 -0 -0 -0 -0 -0 -0 -0 -0 -0 -0 -0 -0
-0 -0 -0 -0 -0 -0 -0 -0 -0 -0 -0 -0 -0 -0 -0 -0 -0 -0 -0 -0 -0 -0 -0 -4 -1 -0 -0 -0 -0 -0 -0 -0 -0 -0 -0 -0 -0 -0 -0 -0 -0 -0 -0 -0 -0
-0 -0 -0 -0 -0 -0 -0 -0 -0 -0 -0 -0 -0 -0 -18 -0 -0 -0 -0 -0 -0 -0 -0 -16 -0 -0 -0 -0 -0 -0 -0 -0 -0 -0 -1 -0 -0 -0 -0 -0 -0 -0 -0 -0 -0
-0 -0 -0 -0 -0 -0 -0 -0 -0 -0 -0 -0 -0 -0 -0 -0 -0 -0 -0 -0 -0 -0 -0 -0 -0 -0 -0 -0 -0 -0 -0 -0 -0 -0 -0 -0 -0 -0 -0 -0 -0 -0 -0 -0 -0
-0 -0 -0 -0 -0 -0 -0 -0 -0 -0 -0 -0 -0 -0 -0 -0 -0 -0 -0 -0 -0 -0 -0 -1 -0 -0 -0 -0 -0 -0 -0 -0 -0 -0 -0 -0 -0 -0 -0 -0 -0 -0 -0 -0 -0
Wind_Speed
27 28 29 30 31 31 32 31 31 31 29 29 29 21 18 18 20 25 32 28 25 30 32 36 31 30 24 21 22 21 28 28 21 16 13 4 3 8 12 8 9 9 12 9 14
25 27 28 30 32 33 33 33 31 31 31 29 27 21 18 16 22 29 21 22 22 24 31 32 30 29 23 22 22 25 30 27 22 19 12 7 6 5 7 6 8 9 9 9 14
24 25 27 28 31 34 34 34 32 31 31 29 27 21 19 13 22 25 14 17 18 24 25 33 31 31 21 21 22 23 27 23 18 16 16 10 11 6 9 9 9 5 4 7 10
24 24 25 26 29 32 34 34 34 31 30 30 27 23 23 23 28 17 11 14 14 22 24 27 30 23 18 19 22 23 21 21 17 19 13 11 10 10 9 9 9 6 4 7 7
25 24 21 22 25 29 33 34 35 32 31 30 28 27 27 29 26 9 9 9 13 18 23 29 28 26 19 19 18 18 20 20 18 17 17 12 12 11 12 9 8 5 2 3 4
25 24 18 17 24 27 31 34 34 33 30 30 29 27 29 40 24 14 14 14 19 18 24 24 25 26 20 22 20 19 18 18 17 15 17 15 12 16 14 8 7 5 3 1 1
25 22 17 17 19 25 29 32 33 31 30 29 29 30 35 36 25 29 24 22 22 23 21 24 26 23 20 19 20 19 20 18 16 17 18 16 20 20 13 11 10 10 8 6 6
23 21 15 17 17 23 27 29 29 30 28 27 26 30 35 25 24 30 27 29 27 24 22 19 18 21 24 21 19 21 23 24 18 17 18 20 24 20 16 17 15 13 12 11 10
20 19 15 15 16 23 25 29 30 29 28 24 25 31 37 23 30 29 27 31 26 23 18 16 20 20 17 27 30 26 25 26 21 20 19 22 22 18 19 20 18 18 17 16 15
17 17 14 12 18 22 25 28 26 29 25 20 22 31 33 37 31 29 25 23 22 16 19 20 23 23 22 26 32 31 27 28 26 22 23 22 25 18 20 22 22 20 20 20 20
13 13 10 9 16 20 25 26 32 32 31 29 27 32 28 24 24 27 27 24 22 24 31 24 31 31 24 22 26 27 29 29 24 23 24 27 31 30 23 25 26 26 24 24 25
10 9 5 9 13 19 26 31 28 25 36 32 27 27 19 21 30 30 23 31 32 33 27 28 40 29 25 25 22 20 31 32 29 26 26 30 34 35 32 33 32 31 31 30 31
9 6 3 7 12 20 30 36 25 24 27 38 27 25 23 24 30 31 25 30 36 34 33 33 27 20 22 26 29 29 31 27 29 25 28 34 42 42 37 35 34 33 34 35 36
10 7 5 5 16 23 30 29 29 23 27 29 33 28 24 21 26 21 22 26 29 38 29 31 24 26 24 31 27 36 30 29 28 30 34 27 40 32 31 31 28 29 31 31 31
17 11 7 4 16 22 22 27 24 25 39 20 26 20 24 29 22 27 19 24 32 29 28 34 27 27 29 28 22 28 22 29 31 33 37 36 38 39 37 34 34 29 27 27 26
14 13 7 11 18 19 22 23 25 29 40 24 22 27 28 27 24 21 22 19 18 24 25 26 25 24 27 22 23 18 19 21 25 30 43 42 39 41 36 32 28 24 23 25 24
13 13 3 14 17 16 22 23 27 30 26 27 28 29 26 26 25 26 28 27 31 33 34 26 26 24 21 22 23 23 23 33 36 37 42 30 37 44 28 27 25 21 22 20 20
14 8 8 12 12 16 25 28 27 22 26 21 22 22 29 25 27 28 29 29 23 29 29 34 37 25 22 25 28 27 26 32 41 41 39 28 38 34 27 26 23 22 24 23 21
8 9 13 14 14 17 27 30 24 22 21 21 20 25 20 23 22 25 30 30 24 20 29 30 29 18 18 19 17 26 34 24 31 30 36 35 32 31 28 28 24 22 21 19 17
9 11 14 15 16 18 26 30 26 20 20 22 22 18 23 17 19 23 26 24 24 18 18 23 27 21 18 16 18 20 18 30 30 41 46 39 37 38 27 24 19 20 19 18 16
10 12 18 15 16 19 27 29 26 17 19 19 21 24 21 20 16 17 21 19 19 21 16 17 22 22 17 26 25 24 25 26 25 29 37 42 35 24 29 25 22 16 15 15 15
16 9 16 14 13 17 25 26 24 17 17 20 16 19 24 23 19 17 20 17 18 18 23 17 19 25 24 21 22 25 26 25 33 34 32 34 36 24 24 21 17 13 17 17 17
20 19 17 15 11 14 19 22 22 19 18 21 19 14 18 24 25 18 15 13 13 15 20 20 21 25 23 22 22 24 25 26 27 27 32 33 28 22 21 18 16 20 19 18 22
22 20 19 15 17 10 15 21 23 20 19 19 20 17 15 18 18 21 19 18 18 18 17 19 20 25 30 25 22 27 26 26 28 33 32 33 32 24 21 22 23 23 24 30 35
17 20 19 19 19 12 12 16 20 22 19 21 22 20 21 19 15 19 19 18 19 21 20 20 26 25 24 24 24 25 28 28 32 33 35 33 36 34 36 38 39 39 40 40 37
18 20 19 19 19 15 12 14 15 19 19 21 21 20 20 20 18 20 16 20 22 19 19 18 21 21 27 25 26 31 29 28 30 34 41 45 53 42 41 38 39 37 35 35 35
18 19 18 18 16 16 15 15 16 17 17 15 17 18 18 17 14 13 13 14 13 16 18 18 20 24 30 25 28 36 34 32 32 32 34 41 44 38 35 34 34 34 30 31 30
Wind_Direction
294 293 287 281 276 275 274 275 272 269 266 267 267 263 273 275 265 255 256 261 262 263 268 261 257 255 261 262 259 261 249 250 258 262 273 264 275 296 299 325 319 336 316 16 94
296 293 291 285 274 271 271 271 272 269 264 265 264 257 264 278 267 255 267 258 262 265 261 254 255 253 257 257 256 252 248 255 258 264 265 246 264 282 301 319 316 333 341 63 95
300 296 293 290 278 269 267 268 269 267 262 259 256 257 257 270 269 266 266 264 271 268 269 249 252 247 256 249 253 255 251 258 262 269 264 242 262 273 285 286 307 334 36 81 96
300 300 298 294 285 270 266 264 265 264 259 254 254 255 249 249 256 272 271 256 267 270 266 253 248 247 250 248 255 252 259 263 269 266 259 243 257 267 281 295 313 342 78 97 101
297 301 306 301 292 275 264 262 259 261 257 252 249 242 241 240 250 280 266 252 268 271 262 251 245 243 245 254 253 257 260 265 265 261 255 254 255 262 268 303 302 333 64 95 95
293 300 309 309 296 281 265 259 257 257 257 249 245 240 250 239 254 264 258 256 259 263 262 256 254 246 253 252 256 268 266 264 263 259 254 251 262 264 263 293 293 294 294 293 357
289 298 306 307 308 285 268 257 256 253 254 247 243 239 248 244 255 247 245 247 251 255 264 253 248 246 247 254 265 267 258 261 260 257 259 258 259 254 270 272 284 281 285 286 290
286 293 302 303 309 290 268 256 252 250 251 245 241 240 245 250 251 240 240 239 245 253 259 263 262 254 251 255 265 260 256 249 257 258 265 257 254 255 271 266 269 281 282 285 286
281 287 294 299 306 286 267 253 253 248 250 244 237 238 241 249 237 236 237 237 250 262 264 275 260 261 255 242 247 251 246 249 254 261 261 256 259 262 268 268 271 274 279 282 288
273 278 284 295 294 280 262 250 247 244 244 240 247 236 244 237 235 240 243 247 252 254 253 255 254 251 249 237 239 241 247 251 254 257 258 259 258 272 271 268 270 275 278 282 287
261 267 277 291 292 278 257 247 236 233 236 233 238 235 235 238 238 239 236 240 244 242 238 246 242 241 245 249 252 243 246 251 256 263 261 261 261 262 270 272 271 273 278 282 285
235 251 262 288 294 276 253 235 233 241 235 237 245 240 242 235 234 230 235 232 233 236 241 244 238 250 256 251 250 251 248 253 261 267 267 265 262 262 266 267 270 274 277 281 283
214 216 242 286 293 272 243 226 227 241 242 231 234 232 234 235 234 225 229 236 236 236 239 242 250 249 251 250 248 252 249 253 258 269 271 269 265 263 266 270 273 276 277 279 281
174 159 140 294 284 263 235 224 224 254 233 227 228 236 232 234 234 228 228 237 239 236 240 250 252 247 250 249 252 250 256 261 262 265 263 271 265 271 265 270 277 279 280 282 285
143 137 130 102 280 257 239 222 224 240 225 230 219 234 230 229 222 226 235 243 236 237 239 243 248 246 249 250 254 259 267 262 263 265 267 265 269 267 270 272 279 284 284 287 290
135 125 113 277 270 265 227 213 225 230 224 235 229 224 219 227 229 216 229 246 247 238 246 249 254 252 254 256 251 261 265 271 271 269 263 263 266 270 272 275 284 288 290 291 296
121 110 48 259 272 248 215 212 219 223 232 232 226 219 215 213 221 214 219 226 233 232 235 245 250 255 253 248 252 252 253 261 262 262 265 276 265 265 281 284 285 287 294 298 304
108 82 272 270 279 239 217 213 216 232 228 237 216 215 221 219 224 222 220 223 239 242 231 237 244 244 249 250 254 249 252 259 260 262 268 274 270 276 282 284 288 288 292 295 300
94 237 245 250 259 240 213 217 219 227 228 221 208 218 225 223 227 219 223 227 238 240 242 238 248 247 246 258 250 249 252 271 271 275 271 270 275 285 286 285 287 289 295 298 298
221 232 233 240 252 238 218 219 223 236 225 220 220 225 222 222 215 219 221 233 232 244 255 247 244 251 251 257 261 261 254 262 268 265 266 273 276 275 285 285 287 288 293 299 301
209 224 202 240 240 237 217 217 221 247 232 224 223 221 222 217 223 220 222 235 240 237 257 251 253 250 250 253 251 258 258 268 274 273 272 272 279 291 287 287 283 289 298 301 302
201 259 203 221 256 243 227 223 232 243 237 231 240 232 226 219 225 235 236 245 246 243 243 260 259 249 254 266 266 258 263 262 267 271 274 278 277 293 294 292 290 295 305 304 304
169 167 185 196 269 250 231 230 234 243 247 238 242 258 243 235 240 244 241 257 255 249 244 247 256 248 255 265 266 264 263 266 268 277 271 273 284 296 294 295 294 298 302 304 304
138 130 149 186 175 256 234 230 232 244 249 253 252 263 261 252 262 248 251 256 256 250 255 252 258 260 257 267 269 264 265 265 265 270 274 270 276 290 301 293 293 297 296 298 301
143 146 143 160 176 231 258 240 235 239 252 251 246 247 244 245 251 243 241 244 253 255 259 263 260 264 272 276 276 275 271 267 265 270 271 278 278 283 286 287 288 291 294 298 302
128 126 155 159 167 216 250 249 243 236 251 250 246 247 254 250 259 244 246 250 254 259 260 268 266 271 270 275 276 273 275 275 275 276 275 277 273 285 287 288 289 293 297 299 302
127 136 143 179 221 229 256 267 262 256 258 268 258 253 253 257 269 274 279 278 273 261 264 269 268 269 268 277 277 272 272 272 276 278 279 279 282 289 289 292 293 294 300 304 307